| time (UTC) | temp F | wind direction | speed MPH | gust MPH | rain 1hr in | rain 24hr in | rain mn in | humidity % | barometer mb |
| 20260901041934 | 55 | 210 | 2.0 | 6.0 | 0.00 | 0.01 | 0.00 | 89 | 1014.2 |
| 20260901041700 | 55 | 214 | 4.0 | 6.0 | 0.00 | 0.01 | 0.00 | 88 | 1014.3 |
| 20260901040936 | 55 | 224 | 3.0 | 5.0 | 0.00 | 0.01 | 0.00 | 88 | 1014.3 |
| 20260901040436 | 55 | 268 | 3.0 | 5.0 | 0.00 | 0.01 | 0.00 | 88 | 1014.3 |
| 20260901035934 | 55 | 269 | 2.0 | 4.0 | 0.00 | 0.01 | 0.00 | 88 | 1014.4 |
| 20260901035434 | 55 | 269 | 1.0 | 4.0 | 0.00 | 0.01 | 0.00 | 88 | 1014.4 |
| 20260901035200 | 55 | 271 | 2.0 | 4.0 | 0.00 | 0.01 | 0.00 | 88 | 1014.3 |
| 20260901034434 | 55 | 271 | 1.0 | 7.0 | 0.00 | 0.01 | 0.00 | 88 | 1014.4 |
| 20260901034158 | 55 | 269 | 4.0 | 10.0 | 0.00 | 0.01 | 0.00 | 88 | 1014.4 |
| 20260901033434 | 55 | 234 | 5.0 | 10.0 | 0.00 | 0.01 | 0.00 | 88 | 1014.4 |
| 20260901032935 | 55 | 247 | 4.0 | 6.0 | 0.00 | 0.01 | 0.00 | 88 | 1014.5 |
| 20260901032434 | 55 | 255 | 4.0 | 10.0 | 0.00 | 0.01 | 0.00 | 89 | 1014.4 |
| 20260901031935 | 55 | 255 | 6.0 | 10.0 | 0.00 | 0.01 | 0.00 | 89 | 1014.5 |
| 20260901031435 | 55 | 240 | 6.0 | 13.0 | 0.00 | 0.01 | 0.00 | 89 | 1014.5 |
| 20260901030939 | 55 | 258 | 7.0 | 13.0 | 0.00 | 0.01 | 0.00 | 89 | 1014.5 |
| 20260901030658 | 54 | 258 | 4.0 | 7.0 | 0.00 | 0.01 | 0.00 | 89 | 1014.3 |
| 20260901025934 | 54 | 258 | 4.0 | 9.0 | 0.00 | 0.01 | 0.00 | 89 | 1014.5 |
| 20260901025433 | 54 | 257 | 5.0 | 9.0 | 0.00 | 0.01 | 0.00 | 89 | 1014.5 |
| 20260901024933 | 54 | 255 | 5.0 | 9.0 | 0.00 | 0.01 | 0.00 | 88 | 1014.4 |
| 20260901024656 | 54 | 250 | 5.0 | 9.0 | 0.00 | 0.01 | 0.00 | 88 | 1014.5 |
| 20260901024152 | 55 | 251 | 4.0 | 6.0 | 0.00 | 0.01 | 0.00 | 88 | 1014.3 |
| 20260901023431 | 55 | 233 | 5.0 | 7.0 | 0.00 | 0.01 | 0.00 | 87 | 1014.4 |
| 20260901022928 | 55 | 238 | 5.0 | 7.0 | 0.00 | 0.01 | 0.00 | 87 | 1014.6 |
| 20260901022429 | 55 | 235 | 4.0 | 7.0 | 0.00 | 0.01 | 0.00 | 87 | 1014.7 |
| 20260901022151 | 55 | 240 | 6.0 | 10.0 | 0.00 | 0.01 | 0.00 | 87 | 1014.7 |
| 20260901021427 | 55 | 233 | 5.0 | 10.0 | 0.00 | 0.01 | 0.00 | 87 | 1014.7 |
| 20260901020927 | 56 | 257 | 6.0 | 10.0 | 0.00 | 0.01 | 0.00 | 87 | 1014.5 |
| 20260901020427 | 56 | 276 | 6.0 | 12.0 | 0.00 | 0.01 | 0.00 | 87 | 1014.5 |
| 20260901015926 | 55 | 268 | 7.0 | 12.0 | 0.00 | 0.01 | 0.00 | 87 | 1014.4 |
| 20260901015425 | 56 | 275 | 6.0 | 11.0 | 0.00 | 0.01 | 0.00 | 86 | 1014.5 |
| 20260901014925 | 56 | 274 | 5.0 | 11.0 | 0.00 | 0.01 | 0.00 | 86 | 1014.4 |
| 20260901014423 | 56 | 289 | 5.0 | 12.0 | 0.00 | 0.01 | 0.00 | 86 | 1014.4 |
| 20260901013923 | 56 | 285 | 6.0 | 13.0 | 0.00 | 0.01 | 0.00 | 86 | 1014.5 |
| 20260901013424 | 56 | 317 | 7.0 | 13.0 | 0.00 | 0.01 | 0.00 | 86 | 1014.5 |
| 20260901012923 | 56 | 269 | 6.0 | 14.0 | 0.00 | 0.01 | 0.00 | 86 | 1014.4 |
| 20260901012422 | 56 | 264 | 7.0 | 14.0 | 0.00 | 0.01 | 0.00 | 86 | 1014.5 |
| 20260901011920 | 56 | 278 | 6.0 | 13.0 | 0.00 | 0.01 | 0.00 | 86 | 1014.5 |
| 20260901011646 | 55 | 298 | 8.0 | 13.0 | 0.00 | 0.01 | 0.00 | 86 | 1014.4 |
| 20260901010920 | 55 | 252 | 5.0 | 11.0 | 0.00 | 0.01 | 0.00 | 86 | 1014.3 |
| 20260901010641 | 55 | 274 | 5.0 | 14.0 | 0.00 | 0.01 | 0.00 | 86 | 1014.3 |
| 20260901005918 | 55 | 289 | 8.0 | 14.0 | 0.00 | 0.01 | 0.00 | 86 | 1014.3 |
| 20260901005417 | 55 | 292 | 8.0 | 12.0 | 0.00 | 0.01 | 0.00 | 86 | 1014.2 |
| 20260901004920 | 55 | 296 | 6.0 | 12.0 | 0.00 | 0.01 | 0.00 | 86 | 1014.3 |
| 20260901004415 | 55 | 290 | 6.0 | 12.0 | 0.00 | 0.02 | 0.00 | 86 | 1014.4 |
| 20260901003915 | 55 | 286 | 7.0 | 14.0 | 0.00 | 0.02 | 0.00 | 86 | 1014.4 |
| 20260901003416 | 55 | 289 | 9.0 | 14.0 | 0.00 | 0.02 | 0.00 | 86 | 1014.3 |
| 20260901002913 | 55 | 289 | 8.0 | 13.0 | 0.00 | 0.02 | 0.00 | 86 | 1014.2 |
| 20260901002413 | 55 | 266 | 7.0 | 13.0 | 0.00 | 0.02 | 0.00 | 85 | 1014.3 |
| 20260901001915 | 55 | 300 | 7.0 | 11.0 | 0.00 | 0.02 | 0.00 | 85 | 1014.3 |
| 20260901001410 | 55 | 255 | 5.0 | 11.0 | 0.00 | 0.02 | 0.00 | 85 | 1014.3 |
| 20260901000912 | 55 | 248 | 5.0 | 11.0 | 0.00 | 0.02 | 0.00 | 85 | 1014.3 |
| 20260901000413 | 55 | 244 | 8.0 | 11.0 | 0.00 | 0.02 | 0.00 | 85 | 1014.4 |
| 20260831235911 | 55 | 281 | 5.0 | 11.0 | 0.00 | 0.02 | 0.00 | 85 | 1014.3 |
| 20260831235650 | 55 | 268 | 6.0 | 12.0 | 0.00 | 0.02 | 0.00 | 84 | 1014.3 |
| 20260831234916 | 55 | 310 | 6.0 | 12.0 | 0.00 | 0.02 | 0.00 | 84 | 1014.4 |
| 20260831234417 | 55 | 286 | 5.0 | 10.0 | 0.00 | 0.02 | 0.00 | 84 | 1014.3 |
| 20260831233918 | 55 | 302 | 4.0 | 10.0 | 0.00 | 0.02 | 0.00 | 84 | 1014.3 |
| 20260831233417 | 55 | 298 | 4.0 | 10.0 | 0.00 | 0.02 | 0.00 | 84 | 1014.3 |
| 20260831232913 | 55 | 274 | 4.0 | 10.0 | 0.00 | 0.03 | 0.00 | 83 | 1014.3 |
| 20260831232417 | 55 | 234 | 4.0 | 9.0 | 0.00 | 0.04 | 0.00 | 83 | 1014.2 |
| 20260831231911 | 56 | 235 | 4.0 | 9.0 | 0.00 | 0.05 | 0.00 | 83 | 1014.2 |
| 20260831231408 | 56 | 257 | 4.0 | 10.0 | 0.00 | 0.05 | 0.00 | 83 | 1014.2 |
| 20260831230908 | 56 | 289 | 4.0 | 10.0 | 0.00 | 0.06 | 0.00 | 82 | 1014.3 |
| 20260831225911 | 56 | 309 | 2.0 | 4.0 | 0.00 | 0.06 | 0.06 | 82 | 1014.2 |
| 20260831225406 | 56 | 312 | 1.0 | 4.0 | 0.00 | 0.06 | 0.06 | 81 | 1014.2 |
| 20260831224905 | 56 | 310 | 1.0 | 9.0 | 0.00 | 0.06 | 0.06 | 81 | 1014.2 |
| 20260831224405 | 56 | 310 | 2.0 | 13.0 | 0.00 | 0.06 | 0.06 | 81 | 1014.1 |
| 20260831223905 | 56 | 292 | 3.0 | 13.0 | 0.00 | 0.06 | 0.06 | 81 | 1014.2 |
| 20260831222907 | 56 | 274 | 5.0 | 12.0 | 0.00 | 0.06 | 0.06 | 81 | 1014.1 |
| 20260831222405 | 57 | 310 | 4.0 | 12.0 | 0.00 | 0.06 | 0.06 | 80 | 1013.9 |
| 20260831221906 | 57 | 279 | 5.0 | 10.0 | 0.00 | 0.06 | 0.06 | 80 | 1014.0 |
| 20260831221405 | 57 | 337 | 6.0 | 14.0 | 0.00 | 0.06 | 0.06 | 80 | 1014.0 |
| 20260831220904 | 57 | 283 | 6.0 | 14.0 | 0.00 | 0.06 | 0.06 | 80 | 1014.1 |
| 20260831220408 | 57 | 288 | 6.0 | 15.0 | 0.00 | 0.06 | 0.06 | 80 | 1014.0 |
| 20260831215904 | 57 | 299 | 8.0 | 15.0 | 0.00 | 0.06 | 0.06 | 79 | 1013.9 |
| 20260831215624 | 57 | 286 | 9.0 | 15.0 | 0.00 | 0.06 | 0.06 | 80 | 1013.9 |
| 20260831214903 | 57 | 300 | 5.0 | 14.0 | 0.00 | 0.06 | 0.06 | 79 | 1013.8 |
| 20260831214404 | 57 | 302 | 7.0 | 14.0 | 0.00 | 0.06 | 0.06 | 79 | 1013.8 |
| 20260831213903 | 57 | 292 | 9.0 | 14.0 | 0.00 | 0.06 | 0.06 | 79 | 1013.8 |
| 20260831213404 | 57 | 275 | 6.0 | 11.0 | 0.00 | 0.06 | 0.06 | 79 | 1013.9 |
| 20260831212902 | 57 | 252 | 5.0 | 13.0 | 0.00 | 0.06 | 0.06 | 79 | 1013.9 |
| 20260831212626 | 57 | 278 | 8.0 | 16.0 | 0.00 | 0.06 | 0.06 | 79 | 1013.9 |
| 20260831211902 | 57 | 265 | 8.0 | 16.0 | 0.00 | 0.06 | 0.06 | 79 | 1013.9 |
| 20260831211402 | 57 | 266 | 8.0 | 12.0 | 0.00 | 0.06 | 0.06 | 79 | 1013.9 |
| 20260831210903 | 57 | 247 | 5.0 | 10.0 | 0.00 | 0.06 | 0.06 | 79 | 1013.9 |
| 20260831210627 | 57 | 286 | 6.0 | 10.0 | 0.00 | 0.06 | 0.06 | 79 | 1013.8 |
| 20260831205902 | 57 | 288 | 5.0 | 12.0 | 0.00 | 0.06 | 0.06 | 79 | 1013.8 |
| 20260831205403 | 57 | 251 | 7.0 | 13.0 | 0.00 | 0.06 | 0.06 | 79 | 1013.8 |
| 20260831205127 | 57 | 299 | 7.0 | 13.0 | 0.00 | 0.06 | 0.06 | 80 | 1013.7 |
| 20260831204402 | 57 | 292 | 6.0 | 14.0 | 0.00 | 0.06 | 0.06 | 80 | 1013.6 |
| 20260831203902 | 57 | 310 | 7.0 | 14.0 | 0.00 | 0.06 | 0.06 | 79 | 1013.6 |
| 20260831203401 | 57 | 271 | 6.0 | 12.0 | 0.00 | 0.06 | 0.06 | 79 | 1013.5 |
| 20260831202903 | 57 | 245 | 8.0 | 15.0 | 0.00 | 0.07 | 0.06 | 79 | 1013.5 |
| 20260831201902 | 57 | 274 | 10.0 | 16.0 | 0.00 | 0.07 | 0.06 | 79 | 1013.4 |
| 20260831201401 | 57 | 292 | 8.0 | 16.0 | 0.00 | 0.07 | 0.06 | 80 | 1013.3 |
| 20260831200900 | 57 | 261 | 9.0 | 16.0 | 0.00 | 0.07 | 0.06 | 80 | 1013.3 |
| 20260831200401 | 57 | 250 | 10.0 | 16.0 | 0.00 | 0.07 | 0.06 | 80 | 1013.3 |
| 20260831195859 | 57 | 272 | 9.0 | 16.0 | 0.00 | 0.07 | 0.06 | 80 | 1013.2 |
| 20260831195400 | 57 | 290 | 9.0 | 17.0 | 0.00 | 0.07 | 0.06 | 80 | 1013.1 |
| 20260831194901 | 57 | 234 | 10.0 | 17.0 | 0.00 | 0.07 | 0.06 | 80 | 1013.0 |
| 20260831194402 | 57 | 279 | 9.0 | 15.0 | 0.00 | 0.07 | 0.06 | 80 | 1012.9 |
| 20260831193901 | 57 | 274 | 6.0 | 13.0 | 0.00 | 0.07 | 0.06 | 80 | 1012.9 |
| 20260831193401 | 57 | 290 | 6.0 | 16.0 | 0.00 | 0.08 | 0.06 | 80 | 1012.9 |
| 20260831192900 | 57 | 289 | 6.0 | 16.0 | 0.00 | 0.08 | 0.06 | 80 | 1012.8 |
| 20260831192400 | 57 | 264 | 6.0 | 15.0 | 0.00 | 0.08 | 0.06 | 80 | 1012.8 |
| 20260831191400 | 57 | 269 | 6.0 | 11.0 | 0.00 | 0.08 | 0.06 | 81 | 1012.7 |
| 20260831190901 | 57 | 251 | 6.0 | 11.0 | 0.00 | 0.08 | 0.06 | 81 | 1012.7 |
| 20260831190401 | 57 | 285 | 3.0 | 7.0 | 0.00 | 0.08 | 0.06 | 81 | 1012.7 |
| 20260831185902 | 58 | 272 | 4.0 | 7.0 | 0.00 | 0.08 | 0.06 | 81 | 1012.6 |
| 20260831185400 | 58 | 240 | 4.0 | 6.0 | 0.00 | 0.08 | 0.06 | 81 | 1012.6 |
| 20260831184900 | 58 | 278 | 4.0 | 6.0 | 0.00 | 0.09 | 0.06 | 81 | 1012.6 |
| 20260831184359 | 58 | 245 | 4.0 | 6.0 | 0.00 | 0.09 | 0.06 | 80 | 1012.5 |
| 20260831184117 | 58 | 286 | 3.0 | 9.0 | 0.00 | 0.11 | 0.06 | 80 | 1012.4 |
| 20260831183400 | 58 | 223 | 3.0 | 9.0 | 0.00 | 0.14 | 0.06 | 80 | 1012.4 |
| 20260831182859 | 58 | 231 | 4.0 | 9.0 | 0.00 | 0.17 | 0.06 | 80 | 1012.3 |
| 20260831182359 | 59 | 252 | 6.0 | 14.0 | 0.00 | 0.24 | 0.06 | 79 | 1012.2 |
| 20260831181858 | 59 | 272 | 7.0 | 15.0 | 0.00 | 0.26 | 0.06 | 79 | 1012.1 |
| 20260831181402 | 59 | 283 | 8.0 | 19.0 | 0.00 | 0.28 | 0.06 | 79 | 1011.9 |
| 20260831180858 | 59 | 276 | 9.0 | 19.0 | 0.00 | 0.28 | 0.06 | 79 | 1011.8 |
| 20260831180400 | 59 | 275 | 9.0 | 14.0 | 0.00 | 0.29 | 0.06 | 79 | 1011.8 |
| 20260831175858 | 59 | 286 | 8.0 | 15.0 | 0.00 | 0.31 | 0.06 | 79 | 1011.7 |
| 20260831175619 | 59 | 326 | 10.0 | 16.0 | 0.00 | 0.32 | 0.06 | 78 | 1011.5 |
| 20260831174857 | 60 | 278 | 9.0 | 17.0 | 0.00 | 0.32 | 0.06 | 78 | 1011.5 |
| 20260831174359 | 60 | 289 | 10.0 | 17.0 | 0.00 | 0.32 | 0.06 | 78 | 1011.4 |
| 20260831174132 | 60 | 286 | 11.0 | 16.0 | 0.00 | 0.32 | 0.06 | 78 | 1011.5 |
| 20260831173401 | 60 | 274 | 10.0 | 16.0 | 0.00 | 0.32 | 0.06 | 78 | 1011.4 |
| 20260831173130 | 60 | 271 | 9.0 | 16.0 | 0.00 | 0.32 | 0.06 | 78 | 1011.4 |
| 20260831172358 | 61 | 305 | 11.0 | 20.0 | 0.00 | 0.32 | 0.06 | 78 | 1011.4 |
| 20260831172119 | 61 | 275 | 11.0 | 20.0 | 0.00 | 0.32 | 0.06 | 77 | 1011.3 |
| 20260831171356 | 62 | 245 | 7.0 | 16.0 | 0.00 | 0.32 | 0.06 | 76 | 1011.1 |
| 20260831171118 | 62 | 266 | 10.0 | 18.0 | 0.00 | 0.32 | 0.06 | 75 | 1011.1 |
| 20260831170357 | 62 | 259 | 8.0 | 18.0 | 0.00 | 0.32 | 0.06 | 75 | 1011.1 |
| 20260831170129 | 63 | 251 | 10.0 | 18.0 | 0.00 | 0.32 | 0.06 | 75 | 1010.9 |
| 20260831165623 | 63 | 296 | 11.0 | 20.0 | 0.00 | 0.32 | 0.06 | 75 | 1010.8 |
| 20260831165121 | 63 | 259 | 12.0 | 20.0 | 0.00 | 0.32 | 0.06 | 75 | 1010.8 |
| 20260831164356 | 64 | 247 | 11.0 | 20.0 | 0.00 | 0.32 | 0.06 | 74 | 1010.7 |
| 20260831163856 | 64 | 295 | 10.0 | 19.0 | 0.00 | 0.32 | 0.06 | 74 | 1010.6 |
| 20260831163619 | 64 | 266 | 13.0 | 22.0 | 0.00 | 0.32 | 0.06 | 73 | 1010.6 |
| 20260831162857 | 64 | 269 | 13.0 | 22.0 | 0.00 | 0.32 | 0.06 | 73 | 1010.5 |
| 20260831162357 | 65 | 269 | 11.0 | 20.0 | 0.00 | 0.32 | 0.06 | 73 | 1010.6 |
| 20260831161856 | 65 | 268 | 10.0 | 23.0 | 0.00 | 0.32 | 0.06 | 73 | 1010.6 |
| 20260831161358 | 65 | 275 | 12.0 | 23.0 | 0.00 | 0.32 | 0.06 | 73 | 1010.6 |
| 20260831160856 | 65 | 271 | 11.0 | 23.0 | 0.00 | 0.32 | 0.06 | 72 | 1010.4 |
| 20260831160624 | 65 | 264 | 12.0 | 22.0 | 0.00 | 0.32 | 0.06 | 71 | 1010.3 |
| 20260831155856 | 65 | 237 | 14.0 | 22.0 | 0.00 | 0.32 | 0.06 | 71 | 1010.3 |
| 20260831155357 | 65 | 281 | 11.0 | 21.0 | 0.00 | 0.32 | 0.06 | 72 | 1010.2 |
| 20260831154356 | 65 | 312 | 10.0 | 23.0 | 0.00 | 0.32 | 0.06 | 71 | 1010.0 |
| 20260831154118 | 66 | 320 | 14.0 | 21.0 | 0.00 | 0.32 | 0.06 | 70 | 1010.1 |
| 20260831153357 | 66 | 295 | 12.0 | 19.0 | 0.00 | 0.32 | 0.06 | 71 | 1010.0 |
| 20260831152855 | 66 | 272 | 8.0 | 22.0 | 0.00 | 0.32 | 0.06 | 73 | 1009.8 |
| 20260831152404 | 66 | 324 | 13.0 | 26.0 | 0.00 | 0.32 | 0.06 | 72 | 1009.7 |
| 20260831151855 | 66 | 276 | 13.0 | 26.0 | 0.00 | 0.32 | 0.06 | 71 | 1009.6 |
| 20260831151355 | 67 | 259 | 16.0 | 24.0 | 0.00 | 0.32 | 0.06 | 71 | 1009.6 |
| 20260831151120 | 67 | 245 | 15.0 | 24.0 | 0.00 | 0.32 | 0.06 | 72 | 1009.4 |
| 20260831150354 | 67 | 302 | 13.0 | 24.0 | 0.00 | 0.34 | 0.06 | 71 | 1009.4 |
| 20260831145855 | 68 | 303 | 11.0 | 19.0 | 0.00 | 0.35 | 0.06 | 72 | 1009.5 |
| 20260831145353 | 68 | 264 | 11.0 | 21.0 | 0.00 | 0.39 | 0.06 | 73 | 1009.4 |
| 20260831144852 | 67 | 274 | 12.0 | 22.0 | 0.00 | 0.39 | 0.06 | 73 | 1009.2 |
| 20260831144617 | 67 | 279 | 13.0 | 22.0 | 0.00 | 0.39 | 0.06 | 72 | 1009.3 |
| 20260831143850 | 68 | 271 | 15.0 | 19.0 | 0.00 | 0.39 | 0.06 | 71 | 1009.1 |
| 20260831142850 | 68 | 279 | 13.0 | 29.0 | 0.00 | 0.39 | 0.06 | 73 | 1008.9 |
| 20260831142347 | 68 | 283 | 13.0 | 22.0 | 0.00 | 0.39 | 0.06 | 72 | 1009.0 |
| 20260831141848 | 69 | 279 | 12.0 | 20.0 | 0.00 | 0.39 | 0.06 | 72 | 1008.9 |
| 20260831141609 | 69 | 283 | 11.0 | 17.0 | 0.00 | 0.39 | 0.06 | 72 | 1008.7 |
| 20260831141350 | 69 | 283 | 11.0 | 17.0 | 0.00 | 0.39 | 0.06 | 72 | 1008.7 |
| 20260831141113 | 68 | 282 | 9.0 | 21.0 | 0.00 | 0.39 | 0.06 | 75 | 1008.8 |
| 20260831140346 | 68 | 271 | 8.0 | 21.0 | 0.00 | 0.39 | 0.06 | 73 | 1008.7 |
| 20260831135846 | 68 | 307 | 15.0 | 26.0 | 0.00 | 0.39 | 0.06 | 73 | 1008.5 |
| 20260831135346 | 68 | 235 | 12.0 | 26.0 | 0.00 | 0.39 | 0.06 | 73 | 1008.5 |
| 20260831134844 | 68 | 286 | 13.0 | 24.0 | 0.00 | 0.39 | 0.06 | 72 | 1008.4 |
| 20260831134346 | 68 | 250 | 14.0 | 24.0 | 0.00 | 0.39 | 0.06 | 72 | 1008.3 |
| 20260831133844 | 67 | 275 | 11.0 | 22.0 | 0.00 | 0.39 | 0.06 | 78 | 1008.3 |
| 20260831133340 | 65 | 285 | 11.0 | 20.0 | 0.00 | 0.39 | 0.06 | 77 | 1008.1 |
| 20260831132839 | 66 | 281 | 11.0 | 20.0 | 0.00 | 0.39 | 0.06 | 79 | 1008.0 |
| 20260831132342 | 65 | 251 | 12.0 | 19.0 | 0.00 | 0.39 | 0.06 | 79 | 1008.0 |
| 20260831131838 | 65 | 293 | 9.0 | 19.0 | 0.00 | 0.39 | 0.06 | 82 | 1008.0 |
| 20260831131340 | 65 | 272 | 11.0 | 19.0 | 0.00 | 0.39 | 0.06 | 82 | 1007.7 |
| 20260831130840 | 65 | 243 | 10.0 | 19.0 | 0.00 | 0.39 | 0.06 | 81 | 1007.7 |
| 20260831130340 | 66 | 300 | 10.0 | 19.0 | 0.00 | 0.39 | 0.06 | 79 | 1007.7 |
| 20260831125839 | 66 | 268 | 9.0 | 19.0 | 0.00 | 0.39 | 0.06 | 79 | 1007.7 |
| 20260831125337 | 66 | 299 | 11.0 | 22.0 | 0.01 | 0.39 | 0.06 | 78 | 1007.6 |
| 20260831124835 | 66 | 295 | 13.0 | 22.0 | 0.01 | 0.39 | 0.06 | 77 | 1007.5 |
| 20260831124335 | 67 | 302 | 11.0 | 21.0 | 0.01 | 0.39 | 0.06 | 77 | 1007.4 |
| 20260831123835 | 68 | 295 | 12.0 | 21.0 | 0.01 | 0.39 | 0.06 | 77 | 1007.3 |
| 20260831123336 | 68 | 299 | 11.0 | 21.0 | 0.01 | 0.39 | 0.06 | 78 | 1007.3 |
| 20260831122837 | 69 | 258 | 11.0 | 21.0 | 0.01 | 0.39 | 0.06 | 77 | 1007.2 |
| 20260831122335 | 68 | 264 | 9.0 | 16.0 | 0.01 | 0.39 | 0.06 | 78 | 1007.1 |
| 20260831121837 | 67 | 288 | 10.0 | 16.0 | 0.01 | 0.39 | 0.06 | 80 | 1007.1 |
| 20260831121339 | 66 | 296 | 6.0 | 16.0 | 0.01 | 0.39 | 0.06 | 79 | 1007.1 |
| 20260831120838 | 67 | 275 | 7.0 | 19.0 | 0.01 | 0.39 | 0.06 | 81 | 1006.9 |
| 20260831120338 | 65 | 268 | 10.0 | 19.0 | 0.01 | 0.39 | 0.06 | 82 | 1006.9 |
| 20260831115838 | 67 | 333 | 7.0 | 15.0 | 0.01 | 0.39 | 0.06 | 79 | 1006.8 |
| 20260831115602 | 68 | 288 | 7.0 | 16.0 | 0.00 | 0.39 | 0.06 | 75 | 1006.7 |
| 20260831114838 | 68 | 289 | 6.0 | 16.0 | 0.00 | 0.39 | 0.06 | 73 | 1006.5 |
| 20260831114338 | 69 | 288 | 10.0 | 16.0 | 0.00 | 0.39 | 0.06 | 72 | 1006.5 |
| 20260831114100 | 69 | 257 | 8.0 | 14.0 | 0.00 | 0.39 | 0.06 | 74 | 1006.4 |
| 20260831113341 | 68 | 305 | 9.0 | 14.0 | 0.00 | 0.39 | 0.06 | 72 | 1006.4 |
| 20260831112840 | 68 | 276 | 8.0 | 16.0 | 0.00 | 0.39 | 0.06 | 75 | 1006.4 |
| 20260831112339 | 67 | 288 | 9.0 | 16.0 | 0.00 | 0.39 | 0.06 | 76 | 1006.3 |
| 20260831112100 | 67 | 298 | 9.0 | 15.0 | 0.00 | 0.39 | 0.06 | 77 | 1006.3 |
| 20260831110839 | 66 | 261 | 6.0 | 13.0 | 0.00 | 0.39 | 0.06 | 78 | 1006.1 |
| 20260831110334 | 66 | 305 | 7.0 | 15.0 | 0.00 | 0.39 | 0.06 | 77 | 1006.2 |
| 20260831105836 | 67 | 292 | 9.0 | 15.0 | 0.00 | 0.39 | 0.06 | 77 | 1006.0 |
| 20260831105335 | 67 | 299 | 9.0 | 15.0 | 0.00 | 0.39 | 0.06 | 76 | 1006.0 |
| 20260831104832 | 68 | 305 | 8.0 | 17.0 | 0.00 | 0.39 | 0.06 | 74 | 1005.9 |
| 20260831104332 | 68 | 279 | 9.0 | 17.0 | 0.00 | 0.39 | 0.06 | 76 | 1005.8 |
| 20260831103832 | 68 | 302 | 10.0 | 17.0 | 0.00 | 0.39 | 0.06 | 74 | 1005.6 |
| 20260831103332 | 68 | 313 | 6.0 | 15.0 | 0.00 | 0.39 | 0.06 | 76 | 1005.6 |
| 20260831102830 | 67 | 271 | 10.0 | 16.0 | 0.00 | 0.39 | 0.06 | 77 | 1005.6 |
| 20260831102330 | 66 | 276 | 10.0 | 16.0 | 0.00 | 0.39 | 0.06 | 79 | 1005.5 |
| 20260831101831 | 66 | 285 | 11.0 | 16.0 | 0.00 | 0.39 | 0.06 | 78 | 1005.4 |
| 20260831101329 | 66 | 288 | 7.0 | 15.0 | 0.00 | 0.39 | 0.06 | 82 | 1005.5 |
| 20260831101056 | 65 | 305 | 8.0 | 15.0 | 0.00 | 0.39 | 0.06 | 82 | 1005.4 |
| 20260831100329 | 64 | 288 | 8.0 | 14.0 | 0.00 | 0.39 | 0.06 | 82 | 1005.4 |
| 20260831095827 | 64 | 285 | 7.0 | 14.0 | 0.00 | 0.39 | 0.06 | 82 | 1005.3 |
| 20260831095327 | 64 | 282 | 9.0 | 14.0 | 0.00 | 0.39 | 0.06 | 83 | 1005.2 |
| 20260831094826 | 64 | 295 | 9.0 | 15.0 | 0.00 | 0.39 | 0.06 | 84 | 1005.1 |
| 20260831094325 | 63 | 302 | 9.0 | 15.0 | 0.00 | 0.39 | 0.06 | 83 | 1005.0 |
| 20260831093825 | 64 | 278 | 6.0 | 14.0 | 0.00 | 0.39 | 0.06 | 83 | 1005.0 |
| 20260831093551 | 64 | 330 | 7.0 | 20.0 | 0.00 | 0.39 | 0.06 | 82 | 1005.0 |
| 20260831092826 | 65 | 275 | 9.0 | 20.0 | 0.00 | 0.39 | 0.06 | 83 | 1004.9 |
| 20260831092325 | 64 | 290 | 9.0 | 18.0 | 0.00 | 0.39 | 0.06 | 84 | 1004.8 |
| 20260831091822 | 63 | 292 | 9.0 | 18.0 | 0.00 | 0.39 | 0.06 | 84 | 1004.8 |
| 20260831091550 | 63 | 279 | 8.0 | 18.0 | 0.00 | 0.39 | 0.06 | 84 | 1004.9 |
| 20260831090821 | 64 | 298 | 11.0 | 18.0 | 0.00 | 0.39 | 0.06 | 83 | 1004.7 |
| 20260831090322 | 64 | 303 | 9.0 | 16.0 | 0.00 | 0.39 | 0.06 | 83 | 1004.6 |
| 20260831085818 | 64 | 286 | 6.0 | 15.0 | 0.00 | 0.39 | 0.06 | 85 | 1004.5 |
| 20260831085318 | 63 | 258 | 10.0 | 15.0 | 0.00 | 0.39 | 0.06 | 85 | 1004.4 |
| 20260831084816 | 63 | 285 | 8.0 | 13.0 | 0.00 | 0.39 | 0.06 | 86 | 1004.4 |
| 20260831084316 | 62 | 296 | 8.0 | 13.0 | 0.00 | 0.39 | 0.06 | 87 | 1004.2 |
| 20260831083818 | 62 | 276 | 6.0 | 13.0 | 0.00 | 0.39 | 0.06 | 88 | 1004.1 |
| 20260831083317 | 62 | 303 | 7.0 | 13.0 | 0.00 | 0.39 | 0.06 | 88 | 1004.1 |
| 20260831082815 | 61 | 289 | 7.0 | 14.0 | 0.00 | 0.39 | 0.06 | 89 | 1004.0 |
| 20260831082314 | 61 | 286 | 9.0 | 15.0 | 0.00 | 0.39 | 0.06 | 89 | 1003.9 |
| 20260831082045 | 61 | 307 | 5.0 | 15.0 | 0.00 | 0.39 | 0.06 | 91 | 1003.9 |
| 20260831081312 | 60 | 307 | 7.0 | 13.0 | 0.00 | 0.39 | 0.06 | 91 | 1003.8 |
| 20260831080811 | 60 | 292 | 8.0 | 13.0 | 0.00 | 0.39 | 0.06 | 92 | 1003.7 |
| 20260831080310 | 60 | 271 | 6.0 | 12.0 | 0.00 | 0.39 | 0.06 | 93 | 1003.7 |
| 20260831075810 | 60 | 317 | 6.0 | 13.0 | 0.00 | 0.39 | 0.06 | 93 | 1003.7 |
| 20260831075536 | 59 | 288 | 7.0 | 13.0 | 0.00 | 0.39 | 0.06 | 94 | 1003.6 |
| 20260831074809 | 59 | 290 | 7.0 | 11.0 | 0.00 | 0.39 | 0.06 | 95 | 1003.4 |
| 20260831074533 | 59 | 290 | 5.0 | 7.0 | 0.00 | 0.39 | 0.06 | 95 | 1003.4 |
| 20260831073808 | 58 | 316 | 2.0 | 9.0 | 0.00 | 0.39 | 0.06 | 95 | 1003.4 |
| 20260831073308 | 58 | 323 | 2.0 | 9.0 | 0.00 | 0.39 | 0.06 | 95 | 1003.3 |
| 20260831072806 | 58 | 331 | 3.0 | 7.0 | 0.00 | 0.39 | 0.06 | 96 | 1003.2 |
| 20260831072306 | 58 | 312 | 4.0 | 7.0 | 0.00 | 0.39 | 0.06 | 96 | 1003.2 |
| 20260831071806 | 58 | 281 | 4.0 | 9.0 | 0.00 | 0.39 | 0.06 | 96 | 1003.0 |
| 20260831071311 | 57 | 312 | 3.0 | 9.0 | 0.00 | 0.39 | 0.06 | 96 | 1003.0 |
| 20260831070816 | 57 | 292 | 5.0 | 9.0 | 0.00 | 0.39 | 0.06 | 96 | 1003.1 |
| 20260831070314 | 57 | 289 | 4.0 | 9.0 | 0.00 | 0.39 | 0.06 | 96 | 1003.0 |
| 20260831065813 | 57 | 275 | 5.0 | 7.0 | 0.00 | 0.39 | 0.06 | 96 | 1003.0 |
| 20260831065312 | 57 | 302 | 2.0 | 7.0 | 0.00 | 0.39 | 0.06 | 96 | 1002.9 |
| 20260831064811 | 56 | 292 | 4.0 | 7.0 | 0.00 | 0.39 | 0.06 | 96 | 1003.1 |
| 20260831064308 | 56 | 292 | 3.0 | 9.0 | 0.00 | 0.39 | 0.06 | 96 | 1002.9 |
| 20260831063816 | 56 | 296 | 4.0 | 9.0 | 0.00 | 0.39 | 0.06 | 96 | 1002.8 |
| 20260831063309 | 56 | 303 | 4.0 | 7.0 | 0.00 | 0.39 | 0.06 | 96 | 1002.7 |
| 20260831063033 | 56 | 296 | 3.0 | 10.0 | 0.00 | 0.40 | 0.06 | 96 | 1002.6 |
| 20260831062308 | 56 | 295 | 3.0 | 10.0 | 0.00 | 0.41 | 0.06 | 96 | 1002.5 |
| 20260831061810 | 56 | 307 | 6.0 | 10.0 | 0.00 | 0.41 | 0.06 | 96 | 1002.4 |
| 20260831061309 | 56 | 293 | 7.0 | 10.0 | 0.00 | 0.41 | 0.06 | 96 | 1002.4 |
| 20260831061030 | 56 | 289 | 4.0 | 6.0 | 0.00 | 0.41 | 0.06 | 96 | 1002.2 |
| 20260831060541 | 56 | 309 | 3.0 | 6.0 | 0.00 | 0.41 | 0.06 | 96 | 1002.1 |
| 20260831055810 | 56 | 295 | 2.0 | 5.0 | 0.00 | 0.41 | 0.06 | 96 | 1002.1 |
| 20260831055309 | 56 | 295 | 3.0 | 5.0 | 0.00 | 0.41 | 0.06 | 96 | 1002.0 |
| 20260831054808 | 56 | 293 | 4.0 | 5.0 | 0.00 | 0.41 | 0.06 | 96 | 1001.9 |
| 20260831054309 | 56 | 281 | 0.0 | 5.0 | 0.00 | 0.41 | 0.06 | 96 | 1001.8 |
| 20260831053811 | 56 | 281 | 2.0 | 5.0 | 0.00 | 0.42 | 0.06 | 96 | 1001.9 |
| 20260831053311 | 56 | 281 | 2.0 | 6.0 | 0.00 | 0.42 | 0.06 | 96 | 1001.7 |
| 20260831053026 | 56 | 281 | 4.0 | 6.0 | 0.00 | 0.42 | 0.06 | 96 | 1001.6 |
| 20260831052308 | 56 | 276 | 3.0 | 6.0 | 0.00 | 0.43 | 0.06 | 96 | 1001.5 |
| 20260831052030 | 56 | 286 | 3.0 | 6.0 | 0.00 | 0.43 | 0.06 | 96 | 1001.6 |
| 20260831051308 | 56 | 282 | 2.0 | 5.0 | 0.00 | 0.43 | 0.06 | 96 | 1001.4 |
| 20260831051026 | 56 | 282 | 2.0 | 5.0 | 0.00 | 0.43 | 0.06 | 96 | 1001.4 |
| 20260831050536 | 56 | 281 | 3.0 | 5.0 | 0.00 | 0.43 | 0.06 | 96 | 1001.3 |
| 20260831045809 | 56 | 279 | 3.0 | 6.0 | 0.00 | 0.43 | 0.06 | 96 | 1001.3 |
| 20260831045539 | 56 | 276 | 2.0 | 6.0 | 0.00 | 0.43 | 0.06 | 96 | 1001.3 |
| 20260831044809 | 56 | 279 | 4.0 | 6.0 | 0.00 | 0.43 | 0.06 | 96 | 1001.1 |
| 20260831044308 | 56 | 275 | 4.0 | 6.0 | 0.00 | 0.43 | 0.06 | 96 | 1001.2 |
| 20260831043808 | 56 | 288 | 2.0 | 6.0 | 0.00 | 0.43 | 0.06 | 96 | 1001.1 |
| 20260831043311 | 56 | 289 | 2.0 | 3.0 | 0.00 | 0.43 | 0.06 | 96 | 1001.1 |
| 20260831042813 | 56 | 289 | 2.0 | 3.0 | 0.00 | 0.43 | 0.06 | 96 | 1001.0 |
| 20260831042314 | 56 | 289 | 2.0 | 3.0 | 0.00 | 0.43 | 0.06 | 96 | 1000.9 |